Regional Weather Roundup
Issued by NWS San Diego, CA

Home | Current Version | Previous Version | Text Only | Print | Product List | Glossary On
Versions: 1 2 3 4 5 6 7 8 9 10 11 12 13 14 15 16 17 18 19 20 21 22 23 24 25 26 27 28 29 30 31 32 33 34 35 36 37 38 39 40 41 42 43 44 45 46 47 48 49
000
ASUS46 KSGX 050811
RWRSGX

SAN DIEGO HOURLY WEATHER ROUNDUP
NATIONAL WEATHER SERVICE SAN DIEGO CA
1200 AM PST THU MAR 05 2015

NOTE: "FAIR" INDICATES FEW OR NO CLOUDS BELOW 12,000 FEET WITH NO
SIGNIFICANT WEATHER AND/OR OBSTRUCTIONS TO VISIBILITY.

CAZ042-043-060-061-PZZ750-775-050900-

GREATER SAN DIEGO AREA

CITY           SKY/WX    TMP DP  RH WIND       PRES   REMARKS
LINDBERGH FLD  CLEAR     57  47  69 CALM      30.18R
NATIONAL CITY    N/A     54  48  80 CALM      30.17R
CHULA VISTA      N/A     50  46  85 CALM      30.10S
IMPERIAL BEACH CLEAR     51  48  89 E8        30.17R
BROWN FIELD    CLEAR     48  41  76 E6        30.16R
MIRAMAR MCAS   CLEAR     49  42  77 E5        30.15S
MONTGOMERY FLD CLEAR     52  46  80 CALM      30.16S

$$

NORTH SAN DIEGO COUNTY

CITY           SKY/WX    TMP DP  RH WIND       PRES   REMARKS
CAMP PENDLETON CLEAR     45  38  76 CALM      30.17S
OCEANSIDE AP   CLEAR     46  41  82 CALM      30.16S
OCEANSIDE HBR    N/A     51  44  78 E10       30.19R
VISTA            N/A     46  41  82 CALM      30.15S
CARLSBAD       CLEAR     53  42  66 E5        30.15S
DEL MAR          N/A     52  47  83 CALM      30.18S
LA JOLLA SCRIP   N/A     57  27  32 CALM      30.14S
FALLBROOK        N/A     51  43  76 CALM      30.18R
ESCONDIDO        N/A     49  42  76 CALM      30.19S
POWAY            N/A     44  40  85 CALM      30.19S

$$

EAST SAN DIEGO COUNTY

CITY           SKY/WX    TMP DP  RH WIND       PRES   REMARKS
RAMONA         CLEAR     40  33  76 NE5       30.16S
SANTEE LAKES     N/A     46  42  88 CALM      30.18S
LA MESA          N/A     52  42  69 CALM      30.11S
JAMUL            N/A     45  38  77 CALM      30.17S
DESCANSO N       N/A     50  19  29 E15       30.09F
MT. LAGUNA OBS   N/A     36  12  37 N14       29.74F WCI  27
CAMPO            N/A     42  20  41 NE6       30.13S

$$

ORANGE COUNTY AND THE LOS ANGELES BASIN

CITY           SKY/WX    TMP DP  RH WIND       PRES   REMARKS
JOHN WAYNE AP  CLEAR     58  44  60 CALM      30.16S
LAKE FOREST FR   N/A     53  26  34 CALM      30.05S
SANTA ANA        N/A     51  42  71 CALM      30.11S
HUNTINGTON BCH   N/A     49  46  87 CALM      30.17F
LOS ALAMITOS   FAIR      51  44  78 NE2       30.16R
FULLERTON      CLEAR     54  39  57 E3        30.16R
LONG BEACH     CLEAR     55  47  74 CALM      30.16S
L.A. AP        PTCLDY    56  47  71 VRB5      30.16S
L.A. DOWNTOWN  CLEAR     57  39  51 CALM      30.16R

$$

THE INLAND EMPIRE

CITY           SKY/WX    TMP DP  RH WIND       PRES   REMARKS
CORONA         CLEAR     37  33  85 CALM      30.18R
CHINO          CLEAR     45  38  76 CALM      30.18S
ONTARIO        MOCLDY    50  37  61 CALM      30.16S
RIVERSIDE AP   CLEAR     50  28  42 NE5       30.17S
RIV CYN CREST    N/A     51  33  49 S2          N/A
MORENO VALLEY    N/A     53  28  38 E1        29.37S
MARCH ARB      CLEAR     40  26  57 W3        30.17S
HORSETHIEF CYN   N/A     49  25  38 S3        30.17R
PERRIS           N/A     55  25  32 E3          N/A
MENIFEE          N/A     44  36  72 CALM      30.26S
HEMET EAST       N/A     47  16  28 CALM      30.20S
FRENCH VALLEY  FAIR      43  34  70 CALM      30.18S
TEMECULA         N/A     46  41  81 CALM      30.13R

$$

SAN BERNARDINO AND RIVERSIDE COUNTY MOUNTAINS

CITY           SKY/WX    TMP DP  RH WIND       PRES   REMARKS
BIG BEAR AP    CLEAR     21  10  63 CALM      30.28S
PINE COVE        N/A     38   2  22 CALM      30.26F

$$

SOUTHERN DESERT INCLUDING THE COACHELLA VALLEY

CITY           SKY/WX    TMP DP  RH WIND       PRES   REMARKS
PALM SPRINGS   CLEAR     58  21  24 W6        30.21S
THOUSAND PALMS   N/A     54  26  33 NW1       30.20R
PALM DESERT      N/A     54  30  39 CALM        N/A
THERMAL        CLEAR     44  31  60 NW3       30.18R
BLYTHE         CLEAR     52  35  52 N9        30.19S
IMPERIAL AP    CLEAR     51  35  54 CALM      30.18R
EL CENTRO NAS  CLEAR     48  34  58 N6        30.18R
YUMA AZ        CLEAR     53  38  56 CALM      30.18R

$$

UPPER DESERT

CITY           SKY/WX    TMP DP  RH WIND       PRES   REMARKS
VICTORVILLE AP   N/A     34  14  44 CALM      30.25S
HESPERIA         N/A     37  18  45 NW3       30.43R
APPLE VALLEY     N/A     34  18  50 CALM      30.29S
PALMDALE       CLEAR     33  20  58 W3        30.25S
LANCASTER      CLEAR     32  23  69 SW5       30.26S WCI  27
EDWARDS AFB    CLEAR     36  21  54 N1        30.24R
DAGGETT        CLEAR     41  20  43 W8        30.26R
29 PALMS N     CLEAR     47  18  31 W12       30.31S

$$

REGIONAL REPORTS

CITY           SKY/WX    TMP DP  RH WIND       PRES   REMARKS
SANTA BARBARA  CLEAR     50  41  71 CALM      30.16S
SANDBERG       CLEAR     42  16  34 NE10      30.24S
MT. WILSON       N/A     39  -2  17 N2          N/A
LAS VEGAS NV   CLEAR     50  23  34 S5        30.26R
PHOENIX AZ     CLEAR     55  37  50 CALM      30.16R
TIJUANA        CLEAR     54  41  62 E5        30.19R
ENSENADA NW      N/A     58  32  37 CALM      30.14S

$$

OFFSHORE ISLANDS

CITY           SKY/WX    TMP DP  RH WIND       PRES   REMARKS
CATALINA ARPT  CLEAR     54  33  45 NW10      30.18S
SAN NICOLAS IS CLEAR    N/A N/A N/A W10       30.16F

$$

MARINE AND OFFSHORE BUOY REPORTS

STATION/POSITION SKY/WX   TEMP    WIND        PRES    SWELL
                          AIR SEA DIR/SP/G            HT/PER/DIR
                          (F)     (DEG/KT/KT) (MB)    (FT/S/D)
TANNER BANKS               60 61  330/ 10/ 12 1021.2S   7/190/16
S CLEMENTE BASIN           61 62  360/  8/ 10 1021.3R   5/210/16
SAN NICOLAS IS.               60                N/A     5/190/15
SO. S. ROSA ISLA           59 60  330/  6/  8 1021.1S   5/16
W. S. BARBARA CH           59 59  340/  4/  4 1021.1F   5/170/16
S. MONICA BASIN            60 62  320/ 14/ 16 1021.1F   2/220/15
S PEDRO CHANNEL               62                N/A     2/180/17
DANA POINT                    61                N/A     3/200/15
CMP PENDLETON NS              62                N/A     3/220/15
OCEANSIDE OFFSHR              62                N/A     3/200/15
TORREY PINES OTR              62                N/A     3/200/17
LA JOLLA 1                 58 63   60/  1/  2   N/A
MISSION BAY BUOY              62                N/A     3/200/17
SAN DIEGO BAY                 65                N/A
POINT LOMA SOUTH              63                N/A     3/190/15

$$



USA.gov is the U.S. government's official web portal to all federal, state and local government web resources and services.